GEFSNE_500_meanwind_000.txt.gz
Wind_Speed
55 53 53 54 55 56 59 62 63 63 62 61 59 59 61 61 61 60 59 56 55 54 52 49 48 48 47 46 46 48 48 48 50 53 53 51 49 55
55 55 56 58 58 59 61 63 64 64 63 59 55 54 54 56 56 56 55 53 53 53 49 48 48 46 44 43 44 46 46 46 49 51 53 53 52 55
57 57 57 58 59 61 62 63 63 62 61 56 48 42 41 45 45 46 46 45 45 45 42 41 43 44 42 39 42 41 39 41 46 50 53 53 50 48
57 57 58 59 59 60 60 60 59 56 52 45 41 37 38 39 39 41 40 40 39 37 33 34 37 39 39 39 40 40 38 39 43 47 49 49 46 43
56 58 59 60 58 55 52 48 46 45 43 39 35 35 36 36 37 37 35 32 28 25 25 28 32 35 37 38 39 38 37 38 39 40 42 40 38 37
57 58 57 54 48 43 39 37 35 34 32 30 28 29 30 31 31 28 22 18 16 17 20 23 25 28 31 34 35 35 36 37 36 34 36 34 31 34
54 52 49 44 41 41 38 33 28 25 22 20 21 22 25 27 23 17 13 11 10 11 14 18 20 23 26 29 30 30 33 38 39 36 35 36 33 32
46 44 43 42 42 41 34 28 23 19 17 17 18 21 23 18 13 11 7 8 9 10 13 16 19 21 22 24 28 31 30 33 40 42 41 41 39 38
40 40 38 35 35 31 26 23 20 18 17 17 17 17 13 11 9 5 4 6 9 11 12 13 15 19 22 25 27 28 30 34 38 42 44 44 41 39
36 34 31 30 26 21 19 17 14 13 13 13 10 8 8 7 5 4 5 8 9 10 10 11 13 17 21 24 26 29 32 37 42 47 48 48 47 46
32 30 27 24 19 14 13 12 10 9 8 4 3 3 3 3 4 4 6 8 9 6 6 10 16 21 24 24 22 22 25 29 33 38 45 48 47 47
28 28 24 19 16 12 10 7 5 3 4 5 3 2 1 3 6 8 8 7 4 3 7 11 15 18 15 13 16 14 14 21 27 31 33 36 37 42
24 24 23 19 15 9 4 4 8 8 7 7 8 8 7 6 7 8 7 3 1 4 8 10 9 6 9 9 8 8 8 5 9 19 29 33 33 37
21 19 17 12 4 5 9 12 11 10 11 11 9 6 8 10 10 7 3 3 4 7 8 5 3 2 6 7 7 10 12 18 21 23 30 32 33 38
18 16 11 7 10 13 14 13 13 12 11 9 7 8 10 9 7 5 4 4 5 6 2 6 9 7 9 11 12 23 25 26 27 30 31 32 37 42
16 9 10 12 14 14 13 12 11 10 8 6 8 10 9 8 7 6 5 4 5 4 5 9 10 14 18 19 18 20 21 22 23 25 26 28 31 34
9 9 11 12 12 10 10 11 11 9 7 6 8 10 9 7 7 8 7 8 10 10 11 13 18 20 23 22 23 22 22 24 25 24 24 25 27 28
9 10 12 12 13 13 14 14 12 11 9 9 12 13 10 9 10 10 9 10 13 16 16 16 17 23 27 23 22 25 27 28 26 25 27 27 26 25
10 11 11 13 15 15 14 13 12 12 11 13 15 13 11 12 12 11 10 11 15 18 20 23 27 28 25 21 22 24 26 27 25 30 33 28 24 28
11 11 12 14 14 12 13 13 12 12 13 14 14 13 14 15 14 13 13 16 21 24 24 23 25 24 25 25 23 21 24 26 26 27 26 26 27 28
12 13 15 15 15 16 17 16 13 13 13 14 14 14 17 18 18 19 21 24 26 26 26 26 28 29 26 22 22 23 25 26 26 25 24 25 28 26
13 15 16 16 16 18 18 16 14 14 16 15 13 15 19 21 21 21 21 24 26 25 24 22 22 29 33 30 29 30 29 27 26 23 23 24 27 29
14 15 16 16 17 17 17 17 17 15 14 14 16 20 22 21 20 21 21 23 26 26 24 21 18 19 25 27 24 24 22 18 17 19 20 19 20 20

GEFSNE_500_meanwind_006.txt.gz
Wind_Speed
63 64 66 68 70 71 71 70 68 65 63 62 61 59 61 61 61 61 62 63 63 61 61 62 63 64 64 63 63 62 60 56 54 53 53 52 52 51
63 65 67 69 70 69 69 68 68 66 65 62 62 60 59 59 58 59 60 60 60 59 60 61 62 63 64 65 65 64 62 58 56 54 53 53 53 51
64 65 66 68 68 68 67 66 66 66 66 63 62 56 50 47 45 46 49 50 49 49 50 51 52 55 59 62 64 65 63 61 58 56 54 54 53 51
63 64 65 66 65 65 64 65 64 63 61 57 51 45 41 40 39 39 39 39 40 41 41 41 42 46 50 54 57 59 61 61 59 57 55 54 53 51
63 63 62 62 62 63 62 59 55 52 50 47 41 38 36 37 36 34 33 33 34 36 36 37 40 43 45 47 49 51 54 56 56 55 53 52 51 50
61 61 61 61 61 59 53 48 45 44 44 41 36 33 33 33 31 29 28 28 29 31 33 35 37 39 41 41 42 44 46 47 48 48 48 48 48 48
61 61 60 58 55 49 44 42 41 41 38 33 29 27 27 26 25 24 23 23 25 26 27 27 27 28 30 31 33 35 36 38 40 42 43 44 45 46
60 58 54 50 45 42 40 38 37 35 29 24 20 19 20 21 20 18 17 17 18 18 16 16 18 17 18 20 22 25 29 32 35 37 39 40 42 42
55 51 47 42 39 38 35 33 32 28 19 15 14 15 14 14 12 11 10 10 10 11 10 10 12 11 12 14 16 19 22 27 31 33 36 38 39 39
47 43 40 37 36 33 29 26 24 16 11 10 10 9 8 7 6 6 6 7 7 7 6 6 7 7 9 11 13 16 20 23 27 31 34 37 38 38
39 36 35 34 32 27 22 18 13 8 6 5 4 4 3 2 2 4 4 4 4 3 2 3 3 4 6 8 11 15 19 24 28 32 34 36 38 38
31 31 31 30 25 19 12 8 4 1 1 2 3 4 3 2 2 2 2 2 1 3 4 6 7 8 9 10 12 15 18 22 26 31 34 36 37 38
25 25 24 20 14 7 2 3 5 6 5 4 4 5 5 4 3 3 3 4 6 8 10 11 12 11 10 10 11 12 15 17 21 26 31 35 38 40
20 18 14 11 6 6 8 10 9 8 6 5 5 5 5 5 5 5 8 11 13 13 12 9 7 5 4 5 5 6 9 11 15 21 27 33 38 42
15 11 9 7 8 11 12 12 11 9 7 5 4 4 4 5 7 10 13 13 10 6 1 5 6 4 2 2 1 2 4 5 8 13 20 28 35 41
11 9 9 10 12 13 13 11 9 7 5 4 3 4 5 7 10 12 11 11 12 12 12 13 12 11 10 10 9 9 7 4 2 3 10 20 29 37
6 7 11 13 14 13 11 8 6 5 5 4 5 6 7 9 11 11 14 17 19 19 18 17 17 17 17 15 15 15 15 14 12 11 13 17 24 31
5 8 10 11 10 10 8 7 6 6 6 6 7 8 9 9 11 13 18 20 22 22 22 21 20 20 20 19 20 21 21 22 23 22 22 20 22 26
7 9 10 9 9 8 7 7 6 6 7 8 8 9 9 10 12 15 19 21 22 22 22 21 21 22 21 19 20 24 25 25 25 26 27 26 24 25
8 9 9 9 10 9 9 8 7 7 8 9 9 10 11 12 14 17 19 20 19 19 19 20 20 20 19 17 18 22 24 25 26 27 29 29 27 25
9 9 9 10 11 11 11 9 8 7 8 10 11 12 14 17 18 20 21 21 20 19 19 18 19 19 18 19 20 21 23 24 25 26 28 29 27 26
10 10 11 11 12 12 12 10 8 8 10 13 14 16 18 20 21 23 23 23 23 23 23 23 24 24 24 24 25 27 29 30 28 27 27 27 26 24
12 12 12 12 12 12 12 11 10 11 14 15 16 18 19 20 21 23 24 24 26 27 28 29 30 29 29 29 29 29 30 31 31 31 31 31 31 29

GEFSNE_500_meanwind_012.txt.gz
Wind_Speed
58 57 58 60 62 64 66 68 70 69 68 69 71 72 73 72 70 69 69 68 68 67 66 64 62 59 58 57 55 54 53 53 52 51 49 48 47 46
58 58 60 62 64 67 69 71 72 73 71 71 73 75 75 74 72 70 68 67 66 64 63 62 61 59 58 59 58 57 56 56 56 55 54 52 51 50
59 61 63 64 66 68 69 71 72 73 73 72 73 73 73 71 67 63 58 56 54 53 52 52 52 52 54 56 57 57 58 59 59 59 59 57 55 54
60 62 64 66 67 68 69 70 72 73 74 72 67 64 60 57 54 51 48 45 42 41 41 42 42 43 45 47 50 53 56 58 60 61 61 61 59 58
60 62 63 65 66 68 69 70 71 69 67 62 56 51 47 46 43 41 37 34 32 32 33 33 34 35 36 38 41 45 49 52 56 59 61 63 63 61
59 61 62 64 66 67 67 66 63 58 53 49 45 40 38 38 35 31 27 25 24 25 26 27 28 29 30 32 34 38 42 46 49 53 58 61 63 63
58 60 61 63 65 64 60 54 49 45 42 38 33 31 30 29 26 21 20 20 20 21 21 22 22 23 25 28 31 34 37 40 43 46 51 56 60 63
57 59 59 59 57 52 46 41 38 36 31 27 24 22 21 19 18 16 15 16 16 17 16 16 17 17 20 22 25 28 30 34 37 41 45 49 55 59
55 54 52 48 43 38 34 32 30 27 22 18 16 15 15 14 13 12 11 11 11 11 10 11 11 12 14 15 16 18 20 23 28 33 39 44 48 53
48 45 41 36 32 29 26 23 20 17 14 12 11 11 11 10 9 8 8 8 8 8 7 7 8 8 9 11 12 13 14 16 18 23 29 35 42 47
40 35 31 27 24 22 18 14 12 11 10 10 9 9 8 8 7 7 7 7 7 7 6 6 7 7 7 8 10 11 12 13 15 17 21 27 34 40
32 28 25 22 20 16 13 11 10 10 10 9 9 9 8 8 7 8 8 8 8 8 8 8 9 9 10 10 11 11 12 13 14 15 17 21 27 32
24 21 20 17 14 11 10 10 10 10 11 11 11 10 10 10 10 11 11 12 12 12 12 12 12 11 11 11 11 10 11 12 13 14 15 18 22 27
17 15 13 11 10 9 9 10 11 12 13 12 12 12 13 14 14 13 12 11 9 8 7 7 7 6 6 5 5 5 6 8 10 11 12 15 20 25
11 9 8 7 7 8 10 12 13 14 14 14 14 15 15 13 11 11 9 9 8 7 7 5 3 2 1 1 2 3 4 6 8 10 12 15 20 25
5 4 5 6 7 9 11 13 14 14 14 15 16 14 13 13 14 14 14 14 14 14 13 12 10 8 7 5 3 2 4 6 8 10 13 17 21 25
2 3 4 6 9 11 12 13 14 14 15 16 15 15 15 16 16 16 16 16 16 16 16 15 14 13 11 8 7 4 3 5 8 11 15 18 22 26
2 3 5 7 10 12 12 13 13 15 16 16 16 17 17 17 17 17 17 17 17 18 18 17 17 16 15 14 11 9 8 7 9 11 15 19 23 27
4 4 6 8 11 12 12 13 13 15 16 17 18 18 18 17 17 18 18 17 17 17 17 16 17 18 18 17 15 13 13 14 15 16 17 20 23 27
6 6 7 9 11 12 12 12 13 15 17 19 19 19 18 17 17 17 17 17 17 16 16 15 15 16 18 18 17 16 18 21 22 21 21 21 24 27
7 8 9 10 11 11 12 13 14 16 18 20 21 21 21 20 19 18 17 17 16 16 15 15 14 15 16 17 18 18 20 23 25 25 24 22 23 25
9 9 10 11 12 12 13 14 16 18 19 20 22 23 23 23 23 22 21 20 20 20 20 21 21 20 19 19 20 21 23 24 25 25 25 24 23 22
11 11 11 12 13 14 15 16 17 18 19 19 21 22 24 25 25 25 25 24 24 24 24 25 27 27 26 25 24 24 25 26 26 25 24 24 24 22

GEFSNE_500_meanwind_018.txt.gz
Wind_Speed
64 63 62 63 64 65 66 68 69 67 65 67 70 72 74 75 76 76 76 75 75 74 73 73 72 72 72 71 71 70 69 66 64 62 60 60 60 59
64 63 64 65 65 66 67 68 69 69 67 67 70 73 75 76 76 75 74 72 70 68 66 65 64 64 65 65 66 66 66 66 65 63 61 60 59 59
65 65 65 64 64 64 65 66 68 69 69 68 70 72 72 72 70 68 65 61 58 55 53 52 52 52 52 53 55 57 59 61 62 62 62 60 59 58
65 64 63 62 62 64 65 66 68 70 70 69 67 65 62 60 57 53 50 47 43 41 40 40 40 41 41 42 43 45 47 51 54 58 59 60 59 58
62 61 61 62 62 63 65 66 66 66 65 62 56 51 46 44 41 38 36 34 32 31 31 31 32 32 32 33 33 35 37 40 43 48 53 57 59 59
60 60 61 61 62 62 63 62 60 57 53 48 42 37 34 32 30 27 26 26 26 25 24 24 24 25 25 26 26 28 30 33 36 40 45 51 56 57
59 59 60 60 60 59 57 53 49 44 38 33 29 26 25 24 23 21 20 21 22 21 19 19 19 19 20 21 22 23 25 27 30 34 39 44 49 54
57 57 57 56 53 50 46 43 37 31 26 23 21 21 20 19 19 18 17 17 18 16 14 15 14 15 15 16 17 18 20 23 27 30 34 38 42 48
54 53 50 47 43 39 34 30 26 23 21 19 18 18 18 18 17 17 16 15 15 14 13 13 12 12 12 12 13 14 16 18 21 24 27 32 36 41
48 45 41 38 32 27 23 21 20 20 19 19 19 18 18 18 17 17 16 16 15 14 13 12 11 10 9 9 10 11 12 14 16 19 23 27 31 36
40 36 32 26 21 18 17 17 18 19 20 20 20 20 20 20 20 19 18 17 16 16 13 11 10 9 8 8 8 9 10 11 13 16 20 24 29 33
32 30 24 17 15 15 15 16 18 19 20 21 21 21 20 20 19 18 17 16 16 16 15 13 12 11 10 10 11 11 11 12 13 15 17 20 25 30
27 24 17 13 13 14 16 17 19 19 20 20 19 18 16 16 16 16 15 14 13 12 11 11 11 11 11 11 12 12 12 13 14 15 17 19 21 24
21 16 12 11 12 14 16 17 18 19 19 17 16 15 15 16 17 17 16 15 13 12 10 7 5 5 7 8 8 9 9 10 11 12 14 16 18 21
13 9 8 9 12 14 15 16 17 17 16 15 15 16 16 17 18 18 18 18 17 16 14 11 8 6 5 5 6 6 6 7 7 8 9 12 14 18
6 4 5 8 11 12 13 15 15 14 14 15 15 16 17 18 18 18 19 19 19 18 17 15 12 9 7 6 5 5 4 3 3 3 4 7 10 14
1 1 5 8 10 11 12 13 13 14 15 15 15 17 18 19 19 19 19 19 19 19 18 17 15 12 10 8 7 5 4 3 3 3 3 5 8 12
3 3 6 8 9 10 12 12 13 14 15 15 15 16 17 18 19 20 20 20 20 20 19 18 18 16 15 13 11 10 9 8 8 8 9 10 11 14
5 5 7 8 9 11 12 14 16 17 17 18 18 19 20 21 22 22 22 21 21 22 22 21 22 22 22 19 17 14 13 14 14 14 15 16 17 19
6 7 8 9 10 12 14 16 18 20 21 21 21 22 23 25 26 27 26 25 24 24 25 25 26 26 26 24 21 20 20 21 21 20 20 20 20 21
8 8 9 11 12 14 16 18 20 22 23 24 24 25 26 27 29 30 30 30 29 28 28 27 28 29 29 27 25 24 25 26 26 25 23 22 22 22
9 10 11 12 14 16 17 19 20 21 22 23 24 25 27 28 30 31 31 31 31 30 29 29 29 31 30 28 26 26 27 27 27 26 25 25 23 22
11 11 12 13 14 16 17 18 19 20 21 22 23 24 25 27 28 29 31 31 30 30 31 31 31 30 29 28 26 26 26 26 26 24 23 23 23 21

GEFSNE_500_meanwind_024.txt.gz
Wind_Speed
55 56 58 59 60 60 60 61 61 60 59 61 62 63 65 67 69 69 68 68 66 66 66 66 67 67 68 70 71 71 71 72 72 73 73 74 74 74
58 58 59 60 60 60 60 60 60 59 58 60 63 65 65 66 65 64 62 60 58 56 55 55 55 55 56 58 61 63 65 66 67 68 70 71 73 74
58 59 59 59 59 59 59 59 59 61 60 61 63 63 61 59 56 53 51 48 46 44 42 41 41 42 43 45 47 50 53 56 59 62 64 67 69 71
58 58 58 58 58 57 57 58 60 61 62 60 58 55 52 48 44 42 40 38 36 34 33 32 32 33 34 35 37 39 41 44 47 50 54 58 62 66
57 57 57 56 56 57 58 59 60 60 58 54 49 45 42 38 36 34 33 32 31 29 28 27 27 28 28 28 29 30 31 33 35 38 41 44 49 54
56 55 55 55 56 57 58 59 57 54 50 44 39 36 34 34 33 32 31 30 29 28 26 25 25 25 25 24 24 25 26 26 28 30 32 35 39 43
55 55 55 55 57 57 56 54 51 46 40 35 33 32 32 33 34 33 31 30 29 27 25 24 23 22 22 21 21 21 22 23 24 25 26 28 31 35
54 54 55 56 55 53 50 47 42 37 33 30 30 31 32 33 32 32 31 30 28 27 25 24 22 21 20 19 18 17 17 18 19 20 22 24 26 29
53 54 54 52 49 45 42 38 35 31 29 30 31 32 31 30 30 29 29 28 27 25 24 23 22 19 18 16 15 15 15 14 15 16 17 19 22 25
52 51 48 45 40 37 33 31 29 29 29 30 30 29 28 26 26 25 24 24 24 23 22 21 20 18 17 15 14 13 13 13 13 13 14 15 17 21
48 44 40 36 32 28 25 25 25 26 28 27 26 24 23 22 22 22 22 22 22 21 20 19 18 17 16 15 14 14 13 13 12 11 11 12 15 19
41 37 33 28 24 21 20 20 22 23 23 22 21 21 21 21 20 21 21 20 20 19 17 15 13 13 13 14 14 14 14 14 13 12 11 11 12 16
33 29 25 20 16 16 17 18 19 19 17 17 18 19 20 20 20 19 19 19 19 17 15 13 11 9 10 10 11 12 12 11 11 11 11 12 12 13
25 21 17 13 12 14 16 16 16 15 15 16 17 18 19 19 19 19 19 19 18 17 15 13 11 8 7 7 8 8 9 9 8 9 10 11 12 13
16 12 9 8 10 12 13 13 12 13 14 15 17 18 19 19 19 19 19 18 18 16 14 13 11 8 7 6 6 6 6 6 5 5 7 9 12 14
8 5 5 6 9 10 10 10 11 12 13 15 17 18 18 18 18 17 17 17 16 15 14 13 11 9 7 7 6 6 5 4 3 3 3 5 10 14
2 1 2 5 6 7 8 9 11 12 14 16 17 18 18 18 17 17 17 18 17 17 15 15 14 13 11 11 10 9 8 7 7 5 2 1 5 11
3 2 3 4 6 8 10 11 13 14 16 18 19 19 20 20 20 20 21 22 21 21 20 19 18 18 17 16 15 14 13 13 12 10 8 6 5 7
5 4 6 7 10 11 13 14 15 17 19 20 21 22 23 23 23 23 24 25 25 25 24 24 23 23 21 20 20 20 20 19 18 17 15 13 11 10
7 8 9 11 13 14 15 16 17 19 21 23 24 25 26 26 26 25 25 26 26 27 26 26 26 25 23 22 22 23 24 24 23 22 21 19 16 14
9 11 13 14 15 15 16 17 18 20 22 24 25 27 27 28 28 27 27 27 27 27 26 26 26 26 25 25 24 25 26 27 26 26 25 23 21 19
12 14 15 15 16 17 17 18 19 20 22 24 25 27 28 29 29 29 29 28 27 27 26 26 26 25 24 23 24 26 27 27 27 27 27 27 25 24
14 15 15 16 16 17 18 18 19 20 21 23 24 26 27 28 29 29 29 28 27 26 26 25 24 23 22 22 23 24 25 26 26 26 26 27 26 26

GEFSNE_500_meanwind_030.txt.gz
Wind_Speed
46 48 50 53 55 57 59 61 62 62 62 63 65 66 67 67 69 69 70 70 69 67 64 62 59 57 55 53 53 53 53 53 54 56 58 62 65 66
50 51 53 56 58 59 61 62 63 63 62 63 65 66 67 67 68 68 66 63 60 57 54 51 49 48 47 46 45 44 44 44 45 46 47 50 55 59
53 54 56 58 59 59 60 61 61 62 62 62 65 66 66 65 64 61 58 54 51 48 46 45 44 44 44 42 41 40 39 38 38 38 39 40 44 50
56 57 57 58 58 58 58 59 61 62 63 62 62 62 61 58 56 53 50 47 44 43 42 42 41 41 41 40 39 37 36 35 34 34 34 35 37 41
57 57 57 57 57 57 58 59 60 61 61 61 58 56 53 50 48 46 43 42 41 40 39 39 38 38 38 38 36 34 32 31 31 30 31 32 33 35
57 56 56 56 56 57 57 58 59 59 58 55 52 48 45 43 42 40 39 38 37 37 37 37 37 36 35 35 34 32 30 29 28 28 28 28 29 31
55 55 55 55 55 55 56 56 56 54 52 48 43 39 38 38 37 36 35 34 33 34 33 33 34 33 33 32 31 30 29 27 26 26 26 26 26 28
54 54 54 53 53 53 53 52 50 48 43 38 35 35 35 34 33 32 32 31 29 30 30 30 31 30 30 29 29 28 27 26 25 25 25 24 25 25
52 52 51 51 49 49 48 47 43 39 35 33 33 33 31 31 30 30 29 29 29 29 28 28 28 28 27 26 25 25 25 24 24 24 23 23 23 24
49 48 47 46 45 44 41 38 34 32 31 32 31 30 30 30 30 29 29 28 28 28 27 27 26 24 23 22 21 21 22 22 23 23 23 23 23 22
45 44 42 41 39 36 32 29 27 28 29 29 29 29 30 31 30 29 28 27 25 25 26 25 23 22 21 19 18 18 19 20 22 22 22 22 22 21
40 38 35 33 31 27 24 22 23 24 25 26 28 29 29 29 29 28 27 25 24 23 23 22 20 18 17 16 15 16 17 19 20 21 21 21 20 19
34 31 28 24 21 19 18 18 19 20 22 23 24 25 26 27 27 26 25 23 22 21 19 18 18 16 14 14 14 14 15 17 18 18 18 18 17 16
26 23 19 16 13 12 13 15 17 18 19 20 22 23 25 26 26 25 24 22 21 19 18 18 17 15 14 13 13 13 14 14 15 15 15 15 14 14
17 14 11 8 7 9 11 13 14 15 17 19 20 22 23 24 25 24 23 22 22 21 20 19 18 17 16 15 14 14 14 14 14 13 13 12 11 10
10 7 5 4 5 7 9 10 12 14 16 18 19 21 22 23 24 24 23 23 23 23 22 21 21 20 20 19 18 16 16 15 13 12 10 8 7 7
4 1 0 2 4 6 8 10 13 14 16 18 19 20 21 22 23 23 23 23 24 24 24 23 23 23 23 23 22 20 19 17 15 12 10 6 3 3
4 4 4 4 5 7 9 11 13 14 16 17 19 19 20 21 22 22 23 23 24 24 24 25 25 25 25 25 24 23 21 20 18 15 12 8 5 4
7 7 7 8 8 9 10 12 13 15 16 17 18 19 20 21 21 22 22 23 23 24 24 25 25 25 25 26 26 25 24 23 22 19 15 11 10 9
9 10 11 11 11 11 12 13 14 16 17 18 19 19 20 20 21 21 21 22 22 22 23 23 23 24 25 27 27 27 27 26 25 23 21 16 14 13
12 13 13 13 13 13 13 14 14 15 17 18 19 19 20 21 21 21 20 20 20 20 20 20 21 22 24 25 26 28 29 28 28 27 25 22 20 17
15 15 14 13 13 13 13 13 14 15 16 17 18 19 20 20 21 21 21 20 19 19 18 18 18 20 21 23 25 27 29 29 29 28 28 25 23 21
16 15 14 13 13 13 12 12 13 14 15 16 17 18 19 19 20 20 21 21 20 19 18 17 17 18 19 20 22 24 25 27 27 27 26 27 26 24

GEFSNE_500_meanwind_036.txt.gz
Wind_Speed
46 48 49 50 51 52 54 55 56 58 59 61 64 66 68 69 70 71 71 71 72 73 73 73 72 70 69 67 65 63 61 60 58 57 56 55 55 54
50 51 53 53 53 55 56 57 58 59 61 63 65 66 66 67 68 69 69 70 70 69 68 66 63 61 59 58 57 55 54 53 51 50 50 49 49 49
54 54 55 55 56 56 58 59 60 61 62 63 65 65 66 66 67 67 67 66 63 61 59 57 56 54 53 51 50 49 48 47 47 46 46 46 46 46
55 55 55 55 56 57 58 59 61 62 62 62 62 63 63 63 63 61 59 57 55 53 52 51 49 47 45 44 44 43 43 43 44 44 43 43 43 42
55 55 55 55 56 57 58 60 61 61 61 60 59 59 58 57 54 53 51 50 49 48 46 45 43 42 42 40 40 39 40 40 40 40 40 40 39 39
54 54 55 55 56 58 59 59 59 58 58 56 54 53 51 50 48 47 45 45 44 43 42 42 41 39 39 38 37 37 36 37 37 37 37 37 36 36
54 54 55 55 56 57 57 56 55 54 52 50 49 46 45 44 43 42 41 40 40 40 39 38 37 36 36 36 35 35 34 34 34 34 33 33 33 33
52 53 53 54 54 55 54 52 50 48 47 45 42 40 38 37 36 37 36 35 34 34 34 34 33 34 34 34 33 33 32 31 30 30 30 30 30 30
51 51 51 51 50 50 48 47 46 44 41 37 34 33 32 31 32 31 31 31 32 31 29 29 30 30 30 29 28 28 28 27 27 26 25 25 26 27
48 48 48 47 46 45 43 42 40 38 34 31 29 28 28 28 29 29 29 29 29 28 26 25 25 25 25 24 23 23 23 22 22 22 22 23 24 25
46 45 43 43 42 40 38 36 34 30 27 25 24 24 25 26 26 26 26 26 26 26 25 23 23 23 23 21 20 20 19 19 19 19 19 21 22 23
43 41 39 38 36 34 30 28 25 22 21 21 21 22 23 24 24 24 24 24 24 23 23 23 22 21 22 22 20 18 17 16 16 17 18 19 20 21
39 36 34 32 29 26 22 19 17 16 16 17 18 19 20 21 21 22 23 23 23 23 22 22 22 22 22 22 21 19 17 16 16 16 17 18 19 20
33 30 27 24 21 18 14 12 11 12 13 14 16 17 18 19 20 21 22 22 22 22 22 23 23 23 23 23 22 21 19 18 16 15 14 15 15 16
24 21 18 15 12 9 7 7 8 9 11 12 14 15 17 19 19 20 21 21 21 21 22 24 24 25 26 25 24 23 21 19 17 14 11 10 10 10
14 12 10 8 5 3 3 4 6 8 10 12 13 15 17 19 20 21 21 21 22 22 23 23 25 26 28 28 26 25 23 21 17 12 8 7 5 5
6 6 5 4 3 3 3 5 7 9 10 12 14 16 18 20 21 21 21 21 22 22 22 23 25 27 29 28 27 26 25 22 18 13 10 7 3 1
7 8 8 8 7 7 7 7 8 9 11 13 15 17 19 21 22 22 22 22 21 21 22 23 24 26 28 28 28 28 26 23 19 16 14 11 8 7
11 11 11 10 10 9 9 9 10 11 13 15 17 19 21 23 23 24 23 23 22 21 21 21 22 24 25 27 28 29 28 25 22 19 17 16 14 13
14 13 12 12 10 10 9 10 11 12 14 17 19 21 22 23 24 24 24 24 22 21 21 20 21 22 25 27 28 28 29 27 24 22 21 19 18 17
15 14 13 12 11 10 10 11 12 14 16 18 20 22 23 24 24 24 24 25 24 22 21 21 21 22 24 26 27 27 28 28 27 25 23 21 20 20
15 14 13 12 11 10 11 12 13 15 17 19 20 21 22 23 24 24 25 25 24 23 22 22 21 21 22 24 26 28 29 29 28 26 24 23 22 22
15 13 12 11 11 11 11 13 14 16 17 18 19 20 22 23 24 25 25 25 25 24 23 22 22 22 22 23 25 26 27 28 29 28 26 25 24 23

GEFSNE_500_meanwind_042.txt.gz
Wind_Speed
41 42 44 46 47 48 49 52 53 54 57 59 60 61 63 64 65 67 68 68 68 67 67 66 65 65 65 65 64 64 63 62 62 61 60 59 59 59
46 46 48 49 51 52 53 55 56 58 59 60 60 61 63 64 65 65 65 64 63 61 59 59 59 59 58 57 56 55 55 55 54 53 52 52 52 52
49 50 52 54 55 56 57 57 58 58 58 59 60 61 62 63 63 62 61 60 58 56 55 54 53 52 51 50 50 50 50 50 49 48 47 47 46 46
53 54 56 57 57 57 57 57 56 57 58 58 59 60 61 60 59 58 56 54 52 51 49 48 47 46 45 45 45 46 45 45 44 44 44 43 43 42
57 58 57 57 57 57 56 56 56 57 57 57 57 58 57 57 55 52 50 48 47 45 43 42 41 41 41 41 41 40 40 40 39 39 39 40 40 40
59 58 57 56 56 56 55 55 55 55 55 55 55 54 53 52 49 46 44 42 41 40 40 39 38 38 38 38 37 37 37 36 36 36 36 37 37 38
57 57 56 55 54 54 54 53 53 53 53 53 51 50 48 46 44 41 38 36 36 36 36 36 36 36 36 36 35 35 34 33 33 33 33 34 34 35
56 55 54 53 53 53 52 52 51 50 50 48 46 44 43 41 37 35 34 33 31 31 32 33 34 34 34 33 34 33 33 31 31 30 30 30 30 31
54 53 53 52 52 52 50 49 48 47 45 43 41 39 36 33 31 30 30 30 29 28 29 31 32 33 33 32 32 32 32 31 30 29 28 27 27 26
52 52 52 50 49 48 47 45 44 43 40 38 35 32 29 27 26 26 26 27 29 30 30 31 32 33 33 31 31 31 31 30 29 28 26 24 23 23
51 50 48 47 45 43 41 40 38 37 34 31 27 24 23 23 23 24 25 26 28 29 30 30 30 31 32 32 33 32 30 29 28 26 24 22 21 20
46 44 42 41 39 36 34 33 31 29 27 24 20 19 20 20 21 23 25 27 28 28 29 29 29 29 29 32 32 31 30 29 27 24 22 20 19 18
41 38 35 33 30 28 26 24 22 21 19 17 17 17 18 20 22 24 25 27 28 28 28 28 28 28 30 30 31 30 29 28 25 22 20 17 15 15
31 28 25 23 21 19 17 15 14 13 13 13 14 16 18 20 22 24 25 27 27 27 27 27 27 28 28 29 29 29 29 26 23 20 17 14 11 11
18 16 15 13 11 10 8 8 8 8 9 11 13 15 18 20 22 23 25 26 26 26 25 25 25 27 28 28 29 29 26 24 22 19 15 11 7 5
8 6 5 4 3 2 2 3 4 6 9 11 13 16 18 20 22 23 24 25 25 24 24 23 24 25 27 28 28 27 25 23 21 18 14 11 7 4
2 3 3 4 4 3 3 4 5 7 9 12 14 16 18 20 21 23 24 24 22 22 23 23 23 25 26 26 26 25 24 23 21 19 16 13 10 7
8 8 8 9 8 8 7 7 8 9 11 13 15 17 19 20 22 23 23 23 22 22 22 22 23 24 25 25 25 25 24 23 22 20 19 17 14 12
12 12 12 11 10 10 9 9 10 11 12 14 16 18 20 22 23 23 24 23 23 22 21 21 22 23 24 24 25 25 24 24 23 22 21 20 18 17
15 14 13 12 11 11 10 11 11 12 13 15 17 19 21 23 24 24 24 23 23 22 21 21 22 22 24 25 25 26 25 24 24 24 23 22 21 21
14 13 13 12 12 12 12 12 13 14 15 16 18 20 21 23 24 24 24 23 23 22 21 21 22 23 24 26 26 25 26 25 25 25 25 24 24 24
14 13 13 12 12 12 12 13 13 14 15 17 18 20 21 22 23 24 24 23 23 22 21 21 22 23 23 24 25 25 26 26 25 25 25 25 25 25
14 13 13 13 13 13 13 13 14 15 16 17 18 20 21 21 22 23 23 23 22 22 22 21 21 22 22 23 24 25 25 26 26 25 25 25 25 25

GEFSNE_500_meanwind_048.txt.gz
Wind_Speed
41 42 43 44 46 47 49 50 52 54 57 57 57 59 59 60 61 63 64 64 65 65 66 66 66 67 66 64 62 60 59 57 56 55 55 55 55 55
45 46 47 47 49 50 52 54 56 58 60 61 62 62 63 64 64 65 65 64 64 64 65 64 64 62 60 57 56 54 53 52 50 49 49 50 50 51
48 49 49 51 52 54 56 57 60 61 63 64 65 65 65 65 65 64 63 62 63 62 61 60 58 55 53 51 50 49 47 47 46 46 46 47 47 48
52 53 53 55 56 58 59 60 61 62 64 65 64 64 64 63 62 60 60 60 60 58 56 54 52 50 48 46 44 44 44 44 44 44 44 45 45 45
55 57 57 57 58 59 60 61 62 62 63 62 62 62 60 59 58 57 57 56 55 53 51 49 47 44 42 41 41 41 42 43 43 43 43 43 43 43
58 59 59 60 60 60 61 62 62 62 61 61 59 58 57 55 54 53 53 51 50 49 47 44 41 40 39 39 39 40 41 42 42 42 42 42 42 42
60 61 60 60 60 61 61 61 61 60 58 56 55 53 52 51 50 49 48 47 45 43 40 39 38 38 38 39 39 40 40 41 41 41 41 41 41 40
61 62 62 61 60 60 59 57 56 54 53 51 49 48 47 46 45 44 43 41 38 37 36 36 37 38 38 39 38 39 39 40 40 41 41 40 40 39
61 61 60 59 58 56 54 51 49 46 45 43 42 41 40 40 39 38 36 35 34 33 33 34 35 36 37 37 37 38 38 38 39 39 39 38 38 37
58 57 57 55 53 50 46 44 41 38 36 35 34 33 33 33 32 31 30 30 31 31 31 32 33 34 36 36 37 37 37 36 36 36 35 35 34 33
52 50 48 45 42 39 36 34 31 30 29 28 27 27 26 26 25 26 26 26 28 29 30 31 31 31 33 34 35 34 34 33 33 32 32 30 29 27
41 39 36 33 30 29 27 25 24 23 22 21 21 20 20 21 21 22 23 24 26 27 27 28 28 28 28 30 30 30 31 30 29 29 27 26 24 22
29 26 24 22 21 19 18 17 17 16 15 15 15 15 16 17 18 20 21 22 23 24 24 24 25 26 26 26 26 27 27 27 27 26 24 21 19 16
17 15 14 13 12 11 11 10 10 9 9 10 11 12 14 16 17 19 20 21 22 22 22 23 24 24 24 24 24 25 25 25 24 22 19 17 15 12
7 6 6 5 5 5 5 5 5 6 7 8 10 11 13 15 16 18 20 20 20 20 21 23 23 23 23 23 24 24 24 23 22 20 17 15 13 10
4 4 5 5 5 5 5 6 6 7 7 8 9 11 13 15 16 17 18 19 19 19 21 22 22 22 23 23 24 24 23 22 21 19 17 16 14 12
7 7 7 7 7 6 6 6 6 7 8 8 10 11 13 14 15 16 17 18 18 18 19 21 21 22 23 23 24 23 22 21 21 20 19 18 17 15
10 9 8 7 7 7 6 7 7 8 8 9 10 11 13 14 15 16 16 17 17 17 18 20 21 22 22 23 23 23 23 22 22 22 21 21 20 18
11 10 9 8 8 7 8 8 8 8 9 10 11 12 13 14 15 15 16 16 16 16 17 19 20 21 21 23 23 23 23 24 24 23 23 22 22 21
11 10 9 9 8 8 8 8 9 9 9 10 11 12 13 14 15 15 15 15 15 16 16 18 19 20 21 22 23 23 23 23 24 24 24 24 24 24
10 10 9 9 9 9 9 9 10 10 11 12 12 13 13 14 15 14 15 15 15 16 16 17 18 19 21 22 22 22 22 23 23 24 24 24 24 24
10 10 10 9 9 10 10 10 11 12 12 13 13 13 13 14 14 14 14 14 15 16 16 17 18 19 20 21 22 22 22 22 22 22 23 23 23 23
10 10 10 10 10 10 10 11 12 13 13 13 13 13 13 14 14 14 14 14 15 15 16 16 17 17 18 20 21 21 21 22 22 22 22 22 21 21